Location: Hurstbourne Priors
(51.2000°N, 1.3667°W)
Time: 20:34:45
(UTC+00:00)

Transit 4A - Pass Details

Date: 28 April 2021
Orbit: 870 x 974 km, 66.8° (Epoch: 09 May)

Event Time Altitude Azimuth Distance (km) Brightness Sun altitude
Rises 02:11:43 0° 299° (WNW) 3,569 10.9 -18.9°
Reaches altitude 10° 02:15:11 10° 318° (NW) 2,605 10.4 -18.6°
Maximum altitude 02:19:10 18° 0° (N) 2,075 10.4 -18.2°
Drops below altitude 10° 02:23:07 10° 42° (NE) 2,562 11.5 -17.8°
Sets 02:26:29 0° 61° (ENE) 3,486 12.1 -17.5°
